User: anonymous   Login
Location: Unspecified
(0.0000°N, 0.0000°E)
Time: 12:37:06
(UTC+00:00)
Language:

APRIZESAT 8 - Orbit

View from above orbital plane
View from above orbital plane
View from above satellite
View from above satellite

Ground track
Ground track

The orbit data is extracted from the following two-line orbital elements,

1 39425U 13066K   18171.91007114 +.00000050 +00000-0 +12716-4 0  9996
2 39425 097.5822 202.2822 0053071 137.6996 222.8329 14.81042574247202
Epoch (UTC): 20 June 2018 21:50:30
Eccentricity: 0.0053071
inclination: 97.5822°
perigee height: 589 km
apogee height: 663 km
right ascension of ascending node: 202.2822°
argument of perigee: 137.6996°
revolutions per day: 14.81042574
mean anomaly at epoch: 222.8329°
orbit number at epoch: 24720

The dashed part of the orbit path shows where the satellite is in the earth's shadow,  

DLR